Altoona, PA

3:30 AM EDT on September 19, 2019 (GMT -0400)
Altoona-Blair County

Weather History for KAOO - August, 2019

Change the Weather History Date:

Friday, August 23, 2019

  Actual Average Record
Temperature  
Mean Temperature 65 °F 69 °F  
Max Temperature 72 °F 79 °F 94 °F (1968)
Min Temperature 57 °F 58 °F 42 °F (1952)
Degree Days  
Heating Degree Days 0 1  
Month to date heating degree days 0 15  
Since 1 June heating degree days 38 83  
Since 1 July heating degree days 0 25  
Cooling Degree Days 0 4  
Month to date cooling degree days 168 124  
Year to date cooling degree days 630 451  
Since 1 June cooling degree days 561 418  
Growing Degree Days 14 (Base 50)    
Moisture  
Dew Point 59 °F    
Average Humidity 77    
Maximum Humidity 97    
Minimum Humidity 57    
Precipitation  
Precipitation 0.18 in 0.10 in 1.08 in (1970)
Month to date precipitation 2.34 2.19  
Year to date precipitation 29.24 23.11  
Sea Level Pressure  
Sea Level Pressure 30.06 in    
Wind  
Wind Speed 3 mph (North)    
Max Wind Speed 12 mph    
Max Gust Speed 14 mph    
Visibility 8 miles    
Events Rain    
T = Trace of Precipitation, MM = Missing Value Source: NWS Daily Summary

Daily Weather History Graph

Daily Weather History Graph

Search for Another Location

Airport or City:

Astronomy

Aug. 23, 2019 Rise Set
Actual Time 6:31 AM EDT 7:59 PM EDT
Civil Twilight 6:03 AM EDT 8:27 PM EDT
Nautical Twilight 5:28 AM EDT 9:01 PM EDT
Astronomical Twilight 4:52 AM EDT 9:38 PM EDT
Moon No Moon Rise 2:07 PM EDT (8/23)
Length of Visible Light 14h 24m
Length of Day
13h 27m
Waning Gibbous, 50% of the Moon is Illuminated
Aug 23
Waning Gibbous
Aug 30
New
Sep 5
First Quarter
Sep 14
Full
Sep 21
Last Quarter

Hourly Weather History & Observations

Time (EDT) Temp. Dew Point Humidity Pressure Visibility Wind Dir Wind Speed Gust Speed Precip Events Conditions
12:35 AM 70.0 °F 66.9 °F 90% 30.02 in 6.0 mi North 10.4 mph - 0.00 in   Overcast
12:53 AM 68.0 °F 64.9 °F 90% 29.99 in 4.0 mi North 6.9 mph - 0.01 in Rain Light Rain
1:03 AM 68.0 °F 64.9 °F 90% 30.03 in 8.0 mi NW 5.8 mph - 0.01 in Rain Light Rain
1:17 AM 66.9 °F 64.0 °F 90% 30.03 in 2.0 mi NNW 5.8 mph - 0.06 in Rain Rain
1:25 AM 66.9 °F 64.0 °F 90% 30.03 in 2.5 mi North 5.8 mph - 0.07 in Rain Rain
1:33 AM 66.9 °F 64.0 °F 90% 30.03 in 7.0 mi North 9.2 mph - 0.08 in Rain Light Rain
1:53 AM 66.0 °F 63.0 °F 90% 30.01 in 5.0 mi Variable 3.5 mph - 0.08 in Rain Light Rain
2:09 AM 64.0 °F 60.1 °F 87% 30.04 in 5.0 mi NE 4.6 mph - 0.01 in Rain Light Rain
2:20 AM 64.0 °F 61.0 °F 90% 30.04 in 6.0 mi NE 3.5 mph - 0.01 in Rain Light Rain
2:29 AM 64.0 °F 61.0 °F 90% 30.04 in 8.0 mi Calm Calm - 0.01 in Rain Light Rain
2:38 AM 64.0 °F 61.0 °F 90% 30.03 in 8.0 mi Calm Calm - 0.01 in Rain Light Rain
2:53 AM 64.0 °F 61.0 °F 90% 30.01 in 10.0 mi Calm Calm - 0.02 in   Overcast
3:23 AM 64.0 °F 60.1 °F 87% 30.03 in 10.0 mi North 8.1 mph - 0.00 in Rain Light Rain
3:53 AM 63.0 °F 59.0 °F 87% 30.01 in 8.0 mi North 6.9 mph - 0.00 in Rain Light Rain
4:27 AM 61.0 °F 57.0 °F 87% 30.05 in 7.0 mi NE 3.5 mph - 0.01 in Rain Light Rain
4:53 AM 61.0 °F 57.0 °F 87% 30.02 in 10.0 mi Calm Calm - 0.01 in   Overcast
5:13 AM 61.0 °F 57.9 °F 90% 30.05 in 10.0 mi Calm Calm - 0.01 in Rain Light Rain
5:53 AM 62.1 °F 57.9 °F 86% 30.04 in 9.0 mi Calm Calm - 0.01 in Rain Light Rain
6:53 AM 61.0 °F 59.0 °F 93% 30.06 in 7.0 mi Calm Calm - 0.02 in Rain Light Rain
7:53 AM 61.0 °F 57.9 °F 90% 30.07 in 9.0 mi SSW 4.6 mph - 0.03 in Rain Light Rain
8:53 AM 61.0 °F 57.9 °F 90% 30.07 in 10.0 mi SW 3.5 mph - 0.01 in Rain Light Rain
9:13 AM 61.0 °F 59.0 °F 93% 30.08 in 5.0 mi SSE 3.5 mph - 0.01 in Rain Light Rain
9:49 AM 62.6 °F 57.2 °F 82% 30.09 in 10.0 mi Calm Calm - 0.01 in   Overcast
9:50 AM 63.0 °F 57.9 °F 84% 30.07 in 10.0 mi Calm Calm - 0.01 in   Overcast
10:53 AM 64.9 °F 57.0 °F 75% 30.08 in 10.0 mi NNE 4.6 mph - N/A   Overcast
11:40 AM 66.0 °F 57.9 °F 75% 30.10 in 10.0 mi WNW 3.5 mph - N/A   Mostly Cloudy
11:53 AM 66.0 °F 57.0 °F 73% 30.08 in 10.0 mi Calm Calm - N/A   Overcast
12:53 PM 66.9 °F 57.0 °F 70% 30.07 in 10.0 mi NW 5.8 mph - N/A   Mostly Cloudy
1:05 PM 66.9 °F 57.0 °F 70% 30.10 in 10.0 mi Variable 6.9 mph - N/A   Mostly Cloudy
1:30 PM 66.9 °F 55.9 °F 68% 30.09 in 10.0 mi NNE 4.6 mph - N/A   Mostly Cloudy
1:53 PM 66.9 °F 55.9 °F 68% 30.07 in 10.0 mi NNE 4.6 mph - N/A   Mostly Cloudy
2:18 PM 66.9 °F 55.0 °F 66% 30.10 in 10.0 mi North 5.8 mph - N/A   Scattered Clouds
2:53 PM 69.1 °F 55.0 °F 61% 30.07 in 10.0 mi North 4.6 mph - N/A   Clear
3:53 PM 70.0 °F 55.9 °F 61% 30.06 in 10.0 mi NNE 6.9 mph - N/A   Scattered Clouds
4:53 PM 71.1 °F 55.9 °F 59% 30.07 in 10.0 mi North 4.6 mph - N/A   Mostly Cloudy
5:53 PM 71.1 °F 57.0 °F 61% 30.07 in 10.0 mi Variable 3.5 mph - N/A   Scattered Clouds
6:53 PM 69.1 °F 57.0 °F 65% 30.08 in 10.0 mi NNE 4.6 mph - N/A   Overcast
7:53 PM 66.0 °F 57.0 °F 73% 30.09 in 10.0 mi NNE 3.5 mph - N/A   Overcast
8:53 PM 63.0 °F 55.9 °F 78% 30.10 in 10.0 mi Calm Calm - N/A   Partly Cloudy
9:53 PM 59.0 °F 55.9 °F 90% 30.13 in 10.0 mi Calm Calm - N/A   Clear
10:53 PM 57.9 °F 55.0 °F 90% 30.15 in 10.0 mi SSE 4.6 mph - N/A   Clear
11:53 PM 59.0 °F 55.9 °F 90% 30.16 in 10.0 mi Calm Calm - N/A   Mostly Cloudy